Weather History for CYWG - November, 2013

Change the Weather History Date:

Wednesday, November 27, 2013

  Actual Average Record
Temperature  
Mean Temperature 8 °F -  
Max Temperature 15 °F 25 °F 48 °F (1998)
Min Temperature 1 °F 10 °F -16 °F (2014)
Degree Days  
Heating Degree Days 57    
Moisture  
Dew Point 9 °F    
Average Humidity 87    
Maximum Humidity 93    
Minimum Humidity 73    
Precipitation  
Precipitation 0.00 in - - ()
Sea Level Pressure  
Sea Level Pressure 30.20 in    
Wind  
Wind Speed 12 mph ()    
Max Wind Speed 22 mph    
Max Gust Speed 30 mph    
Visibility 6.2 miles    
Events Snow    
Averages and records for this station are not official NWS values.
T = Trace of Precipitation, MM = Missing Value Source: Averaged Metar Reports

Daily Weather History Graph

Daily Weather History Graph

Search for Another Location

Airport or City:

Trip Planner

Search our weather history database for the weather conditions in past years. The results will help you decide how hot, cold, wet, or windy it might be!

Date:

Astronomy

Nov. 27, 2013 Rise Set
Actual Time 8:00 AM CST 4:32 PM CST
Civil Twilight 7:23 AM CST 5:09 PM CST
Nautical Twilight 6:42 AM CST 5:50 PM CST
Astronomical Twilight 6:04 AM CST 6:28 PM CST
Moon 1:31 AM CST (11/27) 1:39 PM CST (11/27)
Length of Visible Light 9h 46m
Length of Day
8h 32m
Waning Crescent, 31% of the Moon is Illuminated
Nov 27
Waning Crescent
Dec 2
New
Dec 9
First Quarter
Dec 17
Full
Dec 25
Last Quarter

Hourly Weather History & Observations

Time (CST) Temp. Windchill Dew Point Humidity Pressure Visibility Wind Dir Wind Speed Gust Speed Precip Events Conditions
12:00 AM 1.4 °F -13.5 °F -2.2 °F 85% 30.46 in 15.0 mi South 9.2 mph - N/A   Partly Cloudy
1:00 AM 3.2 °F -10.3 °F 1.4 °F 92% 30.43 in 15.0 mi South 8.1 mph - N/A   Scattered Clouds
2:00 AM 5.0 °F -6.9 °F 1.4 °F 85% 30.42 in 15.0 mi South 6.9 mph - N/A   Mostly Cloudy
3:00 AM 6.8 °F -9.3 °F 5.0 °F 92% 30.38 in 15.0 mi SSE 12.7 mph - N/A   Ice Crystals
4:00 AM 8.6 °F -6.3 °F 5.0 °F 85% 30.37 in 15.0 mi South 11.5 mph - N/A   Overcast
5:00 AM 8.6 °F -7.7 °F 6.8 °F 92% 30.33 in 15.0 mi South 13.8 mph - N/A   Overcast
6:00 AM 8.6 °F -8.3 °F 6.8 °F 92% 30.30 in 5.0 mi South 15.0 mph - N/A Snow Light Snow
6:28 AM 8.6 °F -8.9 °F 6.8 °F 92% 30.28 in 1.0 mi South 16.1 mph - N/A Snow Light Snow
7:00 AM 10.4 °F -7.7 °F 6.8 °F 85% 30.27 in 1.0 mi South 18.4 mph - N/A Snow Light Snow
7:45 AM 10.4 °F -9.1 °F 8.6 °F 92% 30.21 in 0.8 mi South 21.9 mph - N/A Snow Light Snow
8:00 AM 10.4 °F -8.2 °F 8.6 °F 92% 30.20 in 0.8 mi South 19.6 mph 29.9 mph N/A Snow Light Snow
8:31 AM 10.4 °F -6.6 °F 8.6 °F 92% 30.20 in 0.6 mi SSE 16.1 mph 25.3 mph N/A Snow Light Snow
9:00 AM 10.4 °F -8.6 °F 8.6 °F 92% 30.18 in 0.4 mi SSE 20.7 mph 28.8 mph N/A Snow Snow
10:00 AM 12.2 °F -4.3 °F 10.4 °F 92% 30.19 in 0.4 mi SSE 16.1 mph - N/A Snow Snow
10:37 AM 12.2 °F -6.3 °F 8.6 °F 85% 30.16 in 0.5 mi SE 20.7 mph - N/A Snow Snow
10:50 AM 12.2 °F -5.3 °F 10.4 °F 92% 30.14 in 0.8 mi SE 18.4 mph 25.3 mph N/A Snow Light Snow
11:00 AM 12.2 °F -4.8 °F 10.4 °F 92% 30.15 in 0.8 mi SSE 17.3 mph 26.5 mph N/A Snow Light Snow
11:08 AM 12.2 °F -5.3 °F 8.6 °F 85% 30.15 in 1.5 mi SSE 18.4 mph - N/A Snow Light Snow
11:24 AM 14.0 °F -3.0 °F 8.6 °F 79% 30.15 in 6.0 mi SSE 18.4 mph - N/A Snow Light Snow
12:00 PM 14.0 °F -2.5 °F 10.4 °F 86% 30.14 in 4.0 mi SSE 17.3 mph 23.0 mph N/A Snow Light Snow
1:00 PM 14.0 °F -3.4 °F 10.4 °F 86% 30.10 in 15.0 mi SSE 19.6 mph 27.6 mph N/A Snow Low Drifting Snow
2:00 PM 15.8 °F 0.9 °F 8.6 °F 73% 30.09 in 15.0 mi SSE 15.0 mph - N/A Snow Low Drifting Snow
3:00 PM 15.8 °F -0.2 °F 10.4 °F 79% 30.09 in 10.0 mi South 17.3 mph - N/A Snow Light Snow
3:24 PM 15.8 °F 2.1 °F 10.4 °F 79% 30.10 in 2.0 mi South 12.7 mph 19.6 mph N/A Snow Light Snow
4:00 PM 15.8 °F 2.7 °F 10.4 °F 79% 30.11 in 2.0 mi South 11.5 mph - N/A Snow Light Snow
4:15 PM 15.8 °F 2.7 °F 10.4 °F 79% 30.11 in 4.0 mi South 11.5 mph - N/A Snow Light Snow
5:00 PM 15.8 °F 3.4 °F 12.2 °F 86% 30.12 in 2.5 mi South 10.4 mph - N/A Snow Light Snow
5:28 PM 15.8 °F 4.2 °F 12.2 °F 86% 30.12 in 1.5 mi SSE 9.2 mph - N/A Snow Light Snow
6:00 PM 15.8 °F 4.2 °F 12.2 °F 86% 30.13 in 2.5 mi South 9.2 mph - N/A Snow Light Snow
6:32 PM 15.8 °F 4.2 °F 12.2 °F 86% 30.12 in 3.0 mi South 9.2 mph - N/A Snow Light Snow
7:00 PM 15.8 °F 6.1 °F 12.2 °F 86% 30.13 in 5.0 mi South 6.9 mph - N/A Snow Light Snow
8:00 PM 15.8 °F 8.6 °F 12.2 °F 86% 30.14 in 5.0 mi SSW 4.6 mph - N/A Snow Light Snow
8:46 PM 15.8 °F - 12.2 °F 86% 30.15 in 10.0 mi NW 2.3 mph - N/A Snow Light Snow
9:00 PM 14.0 °F 6.5 °F 12.2 °F 93% 30.15 in 10.0 mi NNW 4.6 mph - N/A Snow Light Snow
10:00 PM 10.4 °F -0.4 °F 8.6 °F 92% 30.17 in 10.0 mi NW 6.9 mph - N/A Snow Light Snow
11:00 PM 3.2 °F -11.3 °F 1.4 °F 92% 30.19 in 12.0 mi NNW 9.2 mph - N/A Snow Light Snow